Weather History for South Lake Tahoe, CA

Change the Weather History Date:

Friday, October 5, 2012

  Actual Average Record
Temperature  
Mean Temperature 50 °F 49 °F  
Max Temperature 67 °F 67 °F 80 °F (1991)
Min Temperature 33 °F 30 °F 16 °F (1969)
Degree Days  
Heating Degree Days 15 16  
Month to date heating degree days 51 79  
Since 1 July heating degree days 470 705  
Cooling Degree Days 0 0  
Month to date cooling degree days 0 0  
Year to date cooling degree days 30 31  
Moisture  
Dew Point 29 °F    
Average Humidity 49    
Maximum Humidity 79    
Minimum Humidity 19    
Precipitation  
Precipitation 0.00 in - 0.99 in (1939)
Month to date precipitation 0.00  
Year to date precipitation 11.06  
Sea Level Pressure  
Sea Level Pressure 30.13 in    
Wind  
Wind Speed 5 mph (SSW)    
Max Wind Speed 17 mph    
Max Gust Speed 25 mph    
Visibility 10 miles    
Events      
T = Trace of Precipitation, MM = Missing Value Source: NWS Daily Summary

Daily Weather History Graph

Daily Weather History Graph

Search for Another Location

Airport:

Trip Planner

Search our weather history database for the weather conditions in past years. The results will help you decide how hot, cold, wet, or windy it might be!

Date:

Astronomy

Oct. 05, 2012 Rise Set
Actual Time 7:00 AM PDT 6:35 PM PDT
Civil Twilight 6:33 AM PDT 7:02 PM PDT
Nautical Twilight 6:02 AM PDT 7:32 PM PDT
Astronomical Twilight 5:31 AM PDT 8:03 PM PDT
Moon 10:05 PM PDT (10/5) 12:09 PM PDT (10/5)
Length of Visible Light 12h 28m
Length of Day
11h 35m
Waning Gibbous, 73% of the Moon is Illuminated
Oct 5
Waning Gibbous
Oct 8
Last Quarter
Oct 15
New
Oct 21
First Quarter
Oct 29
Full

Hourly Weather History & Observations

Time (PDT) Temp. Windchill Dew Point Humidity Pressure Visibility Wind Dir Wind Speed Gust Speed Precip Events Conditions
12:53 AM 39.9 °F 36.7 °F 27.0 °F 60% 30.17 in 10.0 mi South 4.6 mph - N/A   Clear
1:53 AM 37.9 °F 35.5 °F 27.0 °F 65% 30.17 in 10.0 mi SSW 3.5 mph - N/A   Clear
2:53 AM 37.0 °F 34.5 °F 26.1 °F 65% 30.17 in 10.0 mi SSW 3.5 mph - N/A   Clear
3:53 AM 37.0 °F 34.5 °F 26.1 °F 65% 30.16 in 10.0 mi South 3.5 mph - N/A   Clear
4:53 AM 39.0 °F - 26.1 °F 60% 30.15 in 10.0 mi Calm Calm - N/A   Clear
5:53 AM 36.0 °F - 26.1 °F 67% 30.17 in 10.0 mi Calm Calm - N/A   Clear
6:53 AM 35.1 °F - 26.1 °F 70% 30.19 in 10.0 mi Calm Calm - N/A   Clear
8:53 AM 46.9 °F - 30.0 °F 52% 30.19 in 10.0 mi Calm Calm - N/A   Clear
9:53 AM 59.0 °F - 28.0 °F 31% 30.16 in 10.0 mi SSW 11.5 mph - N/A   Clear
10:53 AM 61.0 °F - 28.0 °F 29% 30.15 in 10.0 mi SSW 8.1 mph 17.3 mph N/A   Clear
11:53 AM 64.9 °F - 28.0 °F 25% 30.13 in 10.0 mi South 10.4 mph 18.4 mph N/A   Clear
12:53 PM 64.9 °F - 21.0 °F 19% 30.12 in 10.0 mi Variable 6.9 mph 20.7 mph N/A   Clear
1:53 PM 66.0 °F - 25.0 °F 21% 30.12 in 10.0 mi SSW 13.8 mph 21.9 mph N/A   Clear
2:53 PM 64.9 °F - 21.9 °F 19% 30.11 in 10.0 mi SSW 13.8 mph 20.7 mph N/A   Clear
3:53 PM 66.0 °F - 25.0 °F 21% 30.09 in 10.0 mi SSW 11.5 mph 19.6 mph N/A   Clear
4:53 PM 64.0 °F - 25.0 °F 23% 30.09 in 10.0 mi SSW 13.8 mph - N/A   Clear
5:53 PM 61.0 °F - 32.0 °F 34% 30.10 in 10.0 mi Variable 5.8 mph - N/A   Clear
6:53 PM 57.9 °F - 39.0 °F 49% 30.12 in 10.0 mi SSW 5.8 mph - N/A   Clear
7:53 PM 55.0 °F - 39.0 °F 55% 30.13 in 10.0 mi Calm Calm - N/A   Clear
8:53 PM 51.1 °F - 37.9 °F 61% 30.11 in 10.0 mi Calm Calm - N/A   Clear
9:53 PM 48.0 °F - 36.0 °F 63% 30.09 in 10.0 mi Calm Calm - N/A   Clear
10:53 PM 44.1 °F - 35.1 °F 71% 30.09 in 10.0 mi Calm Calm - N/A   Clear
11:53 PM 39.9 °F - 33.1 °F 77% 30.10 in 10.0 mi Calm Calm - N/A   Clear